Location: Kuffner-Sternwarte
(48.2130°N, 16.2960°E)
Time: 15:19:26
(UTC+02:00)

COROT - Pass Details

Date: 07 May 2026
Orbit: 594 x 855 km, 90.1° (Epoch: 21 May)

Event Time Altitude Azimuth Distance (km) Brightness Sun altitude
Rises 23:10:33 0° 9° (N) 3,416 10.2 -21.0°
Reaches altitude 10° 23:13:19 10° 21° (NNE) 2,453 9.2 -21.2°
Maximum altitude 23:18:05 29° 80° (E) 1,445 7.3 -21.5°
Enters shadow 23:19:03 27° 99° (E) 1,488 7.2 -21.6°
